Погода в Москве

Хотите узнать прогноз погоды в Москве? Тогда Вам сюда: Погода в Москве

Поиск расширенной информации на нашем сайте:

Полезная информация:

Новости сайта



02.01.2020
Опубликован Долгосрочный прогноз погоды по городам России и ближнего зарубежья на январь 2020 года.
Карты: Прогноз на январь и февраль 2020 года, Сравнение прогнозируемой аномалии приземной температуры воздуха на январь 2020 года по разным моделям.




Погода в Москве - сегодня

Время (UTC), дата Ветер
(°,м/с) 
Видим.   Явления Облачность Т
(°С)
Тd
(°С)
f(%) Тe
(°С)
Pmin
(гПа)
dP
(гПа)
Po
(мм)
O2
(г/м3)
Тmin Tmax R s Состояние
почвы
09 22.10.21 250 (З) 20000 м    9/9 600 м 
[Sc]
+12.8 +3.6 53 +13  994.1  1.4  732  281           
12 22.10.21 250 (З) 2{14}  20000 м  в посл. час ливневой дождь  8/8 600 м 
[Sc]
+7.8 +4.9 82 +8  996.8  2.3  734  287           
15 22.10.21 230 (ЮЗ) 20000 м    6/6 1000 м 
[Sc]
+8.8 +2.4 64 +9  998.7  736  287      0.7     
18 22.10.21 250 (З) 20000 м    3/3 1000 м 
[Sc]
+7.8 -0.2 57 +8  1000.8  737  289    +13.4  0.7     
21 22.10.21 250 (З) 20000 м    ясно 
+6.8 -0.3 61 +7  1001.8  0.9  738  290           
00 23.10.21 190 (Ю) 20000 м    3/3 1000 м 
[Sc]
+6 -0.6 63 +7  1001.9  0.1  738  291           
03 23.10.21 190 (Ю) 20000 м    10/10 1000 м 
[Sc]
+6.6 +0.3 64 +8  1001.8  -0.1  738  290  +5.8         
06 23.10.21 190 (Ю) 20000 м    8/8 1000 м 
[Sc]
+6.6 +0.6 65 +8  1002.7  0.9  738  290  +5.8        мокрая 
09 23.10.21 200 (Ю) 20000 м    8/8 1000 м 
[Sc]
+7.8 +1.2 63 +9  1003.3  0.6  739  289           
12 23.10.21 230 (ЮЗ) 20000 м    8/8 1000 м 
[Sc]
+8.6 +0.1 55 +9  1003.8  0.6  739  289           
15 23.10.21 240 (ЮЗ) 20000 м  в посл. час ливневой дождь  6/6 1000 м 
[Sc]
+6.1 +1.1 70 +7  1006.7  2.6  741  292      0.2     
18 23.10.21 250 (З) 20000 м  {ливн. осадки}  ясно 
+4.8 +1.2 77 +6  1008.1  1.4  742  294    +8.7  0.2     
21 23.10.21 250 (З) 20000 м    10/10 300 м 
[Frnb]
+4.2 +1.8 84 +5  1008.8  0.6  743  294           
00 24.10.21 190 (Ю) 20000 м    10/10 300 м 
[Frnb]
+4.7 +2.6 86 +6  1008.7  743  294           
03 24.10.21 250 (З) 6000 м  слаб. дождь  10/10 300 м 
[Frnb]
+4.3 +3.4 94 +5  1009.4  0.6  743  294  +3.7    0.2     
06 24.10.21 260 (З) 20000 м  в посл. час дождь  10/10 300 м 
[Frnb]
+3.8 +2.7 93 +5  1011.3  1.9  745  296  +3.7      мокрая 
09 24.10.21 310 (СЗ) 10 км  слаб. ливневой дождь  10/10 300 м кучево-дожд. 
[Cb cap]
+3.8 +1.3 84 +3  1013.6  2.3  746  296           
12 24.10.21 310 (СЗ) 3{10}  20000 м  в посл. час ливневой дождь  10/10 600 м кучево-дожд. 
[Cb cap]
+2.8 -0.9 77 +1  1016.9  3.1  749  299           
15 24.10.21 310 (СЗ) 2{11}  20000 м    8/8 1500 м 
[Sc]
+1.8 -1.6 78 +1  1020.5  3.4  751  301         
18 24.10.21 320 (СЗ) 20000 м    3/0 средняя 
[Ac trans]
+0.9 -2.4 79 1023.1  2.5  753  303    +4.3  0.1     
21 24.10.21 310 (СЗ) 20000 м    ясно 
+0.1 -3.8 75 -2  1024.9  1.7  754  304           
00 25.10.21 310 (СЗ) 20000 м    ясно 
-1 -3.5 83 1027  756  306           
03 25.10.21 тихо ()   20000 м    ясно 
-2.3 -3.7 90 -2  1028.7  1.6  757  308  -2.4         
06 25.10.21 260 (З) 20000 м    8/8 300 м 
-1.1 -3.4 84 -1  1029.9  1.2  758  307  -2.7        замёрзшая 
09 25.10.21 270 (З) 20000 м    10/3 600 м верхняя 
[Sc|Cs]
+0.8 -3 76 +1  1030.5  0.7  759  305           
Время (UTC), дата Ветер
(°,м/с) 
Видим.   Явления Облачность Т
(°С)
Тd
(°С)
f(%) Тe
(°С)
Pmin
(гПа)
dP
(гПа)
Po
(мм)
O2
(г/м3)
Тmin Tmax R s Состояние
почвы

Для получения пояснительной информации подведите курсор к названию столбца.

ПОГОДА в Москве - архив

Всё, что Вы хотите узнать о погоде в Москве - удобно и подробно!

Выберите нужную дату (начиная с 1 января 2019* года) и нажмите кнопку "Найти".
Будут отображены архивные сводки погоды по пункту Москва, начиная с указанной даты.


Отображать данные в формате CSV (для использования в таблицах Excel)


Внимание! Наш архив погоды предназначен исключительно для личного некоммерческого использования в познавательных целях. Если Вам необходимы официальные справки о состоянии погоды (для производственных, юридических, коммерческих и т.п. целей), обращайтесь в органы Росгидромета.

*Примечание: данная дата относится к архиву по метеостанциям СССР (Россия, СНГ, Балтия).
Архив по метеостанциям Зарубежной Европы и Азии (кроме Китая) хранится 10 дней, по другим регионам земного шара (Китай, Африка, Америка, Австралия, Океания) - 1 день.

Москва - район местоположения метеостанции


Название, широта, долгота, высота метеостанции:
Москва (ВВЦ) 55.8°ш. 37.6°д. 156 м над ур. моря [Российская Федерация]

Дополнительная информация

В oтличие oт бoльшинства пoгoдных сайтoв мы публикуем пoдрoбную метеoинфoрмацию в детальнoм прoфессиoнальнoм фoрмате.

Характеристики температуры и влажнoсти вoздуха измеряются на высoте 2 м в тени вдали oт зданий и деревьев.
Скoрoсть ветра измеряется на высoте 10 м (на урoвне рoста челoвека скoрoсть ветра ниже в 1.5-2 раза). Если метеoстанция нахoдится в гoрoде или в лесу, тo скoрoсть ветра занижена на 2-4 м/с пo сравнению с oткрытым местoм. Скoрoсть ветра над акватoриями крупных рек и oзёр, а также на вершинах хoлмoв на 2-5 м/с выше, чем в oбычных услoвиях.
Атмoсфернoе давление в разных тoчках местнoсти мoжет значительнo oтличаться oт давления на метеoстанции, в зависимoсти oт услoвий рельефа (при пoдъёме на 10 м давление пoнижается примернo на 1 мм рт.ст.).